Regional Weather Roundup
Issued by NWS

Home | Current Version | Previous Version | Graphics & Text | Print | Product List | Glossary On
Versions: 1 2 3 4 5 6 7 8 9 10 11 12 13 14 15 16 17 18 19 20 21 22 23 24 25 26 27 28 29 30 31 32 33 34 35 36 37 38 39 40 41 42 43 44 45 46 47 48 49 50
991
ASUS44 KJAN 251810
RWRMS

MISSISSIPPI HOURLY WEATHER ROUNDUP
NATIONAL WEATHER SERVICE JACKSON MS
100 PM CDT FRI JUL 25 2014

NOTE: "FAIR: INDICATES FEW OR NO CLOUDS BELOW 12,000 FEET WITH NO
SIGNIFICANT WEATHER AND/OR OBSTRUCTIONS TO VISIBILITY.

MSZ001>002-007>008-010>013-018>021-025>028-034>036-251900-
NORTHWEST MISSISSIPPI

CITY           SKY/WX    TMP DP  RH WIND       PRES   REMARKS
CLARKSDALE     FAIR      81  66  61 CALM      30.05F
CLEVELAND      FAIR      82  66  59 CALM      30.03F
GREENWOOD      SUNNY     83  65  54 NW7       30.03F
6HR MIN TEMP:  64; 6HR MAX TEMP:  84;

GREENVILLE     SUNNY     84  63  49 VRB6      30.03F
6HR MIN TEMP:  63; 6HR MAX TEMP:  85;

GRENADA        FAIR      82  61  47 N6        30.03F
OLIVE BRANCH   MOSUNNY   81  63  54 CALM      30.04F
OXFORD         FAIR      79  59  50 NW5       30.06F
TUNICA         CLEAR     81  63  54 CALM      30.05F
$$

MSZ003>006-009-014>017-022>024-029>033-037>039-251900-
NORTHEAST MISSISSIPPI

CITY           SKY/WX    TMP DP  RH WIND       PRES   REMARKS
BELMONT        FAIR      81  66  60 CALM      30.03F
COLUMBUS AFB   PTSUNNY   82  65  56 NW9       30.02F
6HR MIN TEMP:  64; 6HR MAX TEMP:  83; 6HR PCP: TRACE;

CORINTH        FAIR      81  63  54 NW7       30.04F
GOLDN TRIANGLE MOSUNNY   84  70  61 NW9       30.03F
STARKVILLE     FAIR      82  68  61 W6        30.02F
TUPELO         PTSUNNY   83  64  52 VRB3      30.03F
6HR MIN TEMP:  64; 6HR MAX TEMP:  83;

$$

MSZ040-058-251900-
CENTRAL MISSISSIPPI

CITY           SKY/WX    TMP DP  RH WIND       PRES   REMARKS
JACKSON INTL   MOSUNNY   88  70  55 W8        30.03F HX  93
6HR MIN TEMP:  71; 6HR MAX TEMP:  91;

JACKSON HAWKNS MOSUNNY   87  70  56 W9        30.03F HX  92
6HR MIN TEMP:  72; 6HR MAX TEMP:  88;

MERIDIAN KEY   MOSUNNY   88  70  55 VRB5      30.01F HX  93
6HR MIN TEMP:  71; 6HR MAX TEMP:  89;

MERIDIAN NAS   MOSUNNY   88  69  53 W9        30.01F HX  92
6HR MIN TEMP:  69; 6HR MAX TEMP:  89;

RAYMOND        FAIR      86  82  89 NW6       30.03F HX 105
VICKSBURG      MOSUNNY   90  74  59 VRB3      30.02F HX  99
6HR MIN TEMP:  68; 6HR MAX TEMP:  90;

$$

MSZ059>079-251900-
SOUTH MISSISSIPPI

CITY           SKY/WX    TMP DP  RH WIND       PRES   REMARKS
BROOKHAVEN     FAIR      86  75  70 NW5       30.05F HX  95
COLUMBIA       FAIR      90  75  62 NW6       30.02F HX 100
HATTIESBURG    MOSUNNY   89  73  59 W6        30.03F HX  97
6HR MIN TEMP:  75; 6HR MAX TEMP:  90;

MCCOMB         MOSUNNY   90  72  55 VRB5      30.04F HX  97
6HR MIN TEMP:  73; 6HR MAX TEMP:  90;

NATCHEZ        MOSUNNY   88  72  58 CALM      30.03F HX  94
6HR MIN TEMP:  72; 6HR MAX TEMP:  88;

PINE BELT      MOSUNNY   90  72  55 W5        30.04F HX  96
6HR MIN TEMP:  73; 6HR MAX TEMP:  90;

$$

MSZ080>082-251900-
COASTAL MISSISSIPPI

CITY           SKY/WX    TMP DP  RH WIND       PRES   REMARKS
BAY ST LOUIS   MOSUNNY  N/A N/A N/A MISG      30.02F
BILOXI         MOSUNNY   90  77  65 SW12      30.00F HX 102
PASCAGOULA     MOSUNNY   91  75  59 VRB5      30.00F HX 101
6HR MIN TEMP:  74; 6HR MAX TEMP:  91;

GULFPORT       MOSUNNY   95  73  48 W8        30.00F HX 104
6HR MIN TEMP:  79; 6HR MAX TEMP:  95;

$$



USA.gov is the U.S. government's official web portal to all federal, state and local government web resources and services.